Climatologie pour Saint-Brevin les Pins
Jour • Résumé pour mai 12, 2017 Système :  Métrique    Anglais   Mixte
« - 1 jour
+ 1 jour »
Jour Semaine Mois Année Personnalisé
  Maximum : Minimum : Moyenne :
Température sous abri : -17.8 °C -10.4 °C -9.5 °C
Point de rosée : -17.8 °C -11 °C -10.4 °C
Humidité : Humidity % 83 % 89 %
Vitesse du vent : 0 km/h 0 km/h 13.8 km/h
Rafale : 0 km/h - -
Direction :- - SW
Pression : 0 hPa 33717.8 hPa -
Précipitations : 0 mm    
Historical Graphs
 
 
Tableau de données pour mai 12, 2017
Heure Tempé Pt rosée Pression Vent Vitesse Rafale Humidité Taux pluie (/hr) Soleil
-17.8 °C -17.8 °C 0 hPa Calm     Humidity % 0 mm SolarRadiationWatts/m^2 W/m2 Conditions
00:00 -10.2 °C -10.8 °C 33731.3 hPa South 12.9 km/h 31.1 km/h 94 % 0 mm 0 W/m2
00:10 -10.3 °C -10.8 °C 33731.3 hPa Calm   28.5 km/h 94 % 0 mm 0 W/m2
00:15 -10.3 °C -10.8 °C 33717.8 hPa SSW 15.6 km/h 28.5 km/h 94 % 0 mm 0 W/m2
00:20 -10.3 °C -10.9 °C 33717.8 hPa SSW 7.7 km/h 23.3 km/h 94 % 0 mm 0 W/m2
00:25 -10.4 °C -10.9 °C 33717.8 hPa SW 12.9 km/h 20.8 km/h 94 % 0 mm 0 W/m2
00:30 -10.4 °C -10.9 °C 33717.8 hPa SSW 15.6 km/h 20.8 km/h 94 % 0 mm 0 W/m2
00:35 -10.4 °C -10.9 °C 33717.8 hPa SSE 15.6 km/h 25.9 km/h 94 % 0 mm 0 W/m2
00:40 -10.4 °C -10.9 °C 33731.3 hPa SW 12.9 km/h 28.5 km/h 94 % 0 mm 0 W/m2
00:45 -10.4 °C -10.9 °C 33731.3 hPa SSW 23.3 km/h 28.5 km/h 94 % 0 mm 0 W/m2
00:50 -10.4 °C -10.9 °C 33731.3 hPa SSW 2.6 km/h 25.9 km/h 94 % 0 mm 0 W/m2
00:55 -10.4 °C -10.9 °C 33731.3 hPa SSW 25.9 km/h 25.9 km/h 94 % 0 mm 0 W/m2
01:00 -10.4 °C -10.9 °C 33731.3 hPa South 7.7 km/h 25.9 km/h 94 % 0 mm 0 W/m2
01:05 -10.4 °C -10.9 °C 33717.8 hPa South 25.9 km/h 25.9 km/h 94 % 0 mm 0 W/m2
01:10 -10.4 °C -10.9 °C 33731.3 hPa South 15.6 km/h 25.9 km/h 94 % 0 mm 0 W/m2
01:15 -10.4 °C -10.9 °C 33731.3 hPa South 15.6 km/h 23.3 km/h 94 % 0 mm 0 W/m2
01:20 -10.4 °C -10.9 °C 33731.3 hPa South 15.6 km/h 23.3 km/h 94 % 0 mm 0 W/m2
01:25 -10.4 °C -10.9 °C 33731.3 hPa SSW 5.1 km/h 31.1 km/h 94 % 0 mm 0 W/m2
01:30 -10.3 °C -10.9 °C 33731.3 hPa SSW 15.6 km/h 31.1 km/h 94 % 0 mm 0 W/m2
01:35 -10.3 °C -10.9 °C 33731.3 hPa South 10.3 km/h 25.9 km/h 93 % 0 mm 0 W/m2
01:40 -10.3 °C -10.9 °C 33731.3 hPa SW 12.9 km/h 25.9 km/h 93 % 0 mm 0 W/m2
01:45 -10.2 °C -10.9 °C 33741.5 hPa SSW 15.6 km/h 25.9 km/h 92 % 0 mm 0 W/m2
01:50 -10.2 °C -10.9 °C 33741.5 hPa SSW 12.9 km/h 31.1 km/h 92 % 0 mm 0 W/m2
01:55 -10.2 °C -11 °C 33741.5 hPa SSE 10.3 km/h 31.1 km/h 91 % 0 mm 0 W/m2
02:00 -10.2 °C -11 °C 33741.5 hPa South 18.2 km/h 31.1 km/h 91 % 0 mm 0 W/m2
02:05 -10.2 °C -11 °C 33741.5 hPa SW 18.2 km/h 31.1 km/h 91 % 0 mm 0 W/m2
02:10 -10.2 °C -11 °C 33741.5 hPa SSW 25.9 km/h 31.1 km/h 91 % 0 mm 0 W/m2
02:15 -10.2 °C -11 °C 33741.5 hPa SSW 12.9 km/h 31.1 km/h 91 % 0 mm 0 W/m2
02:20 -10.2 °C -11 °C 33741.5 hPa South 12.9 km/h 33.6 km/h 91 % 0 mm 0 W/m2
02:25 -10.1 °C -10.8 °C 33741.5 hPa South 15.6 km/h 33.6 km/h 92 % 0 mm 0 W/m2
02:30 -10.1 °C -10.8 °C 33741.5 hPa South 12.9 km/h 33.6 km/h 92 % 0 mm 0 W/m2
02:35 -10.1 °C -10.7 °C 33741.5 hPa South 28.5 km/h 33.6 km/h 92 % 0 mm 0 W/m2
02:40 -10 °C -10.7 °C 33741.5 hPa South 28.5 km/h 36.2 km/h 92 % 0 mm 0 W/m2
02:45 -10 °C -10.7 °C 33741.5 hPa South 12.9 km/h 36.2 km/h 92 % 0 mm 0 W/m2
02:50 -10 °C -10.7 °C 33731.3 hPa South 15.6 km/h 33.6 km/h 92 % 0 mm 0 W/m2
02:55 -10 °C -10.7 °C 33731.3 hPa SW 23.3 km/h 33.6 km/h 92 % 0 mm 0 W/m2
03:00 -10 °C -10.7 °C 33731.3 hPa South 12.9 km/h 33.6 km/h 92 % 0 mm 0 W/m2
03:05 -10 °C -10.7 °C 33731.3 hPa South 28.5 km/h 33.6 km/h 92 % 0 mm 0 W/m2
03:10 -9.9 °C -10.7 °C 33731.3 hPa SSW 15.6 km/h 33.6 km/h 92 % 0 mm 0 W/m2
03:15 -9.9 °C -10.7 °C 33731.3 hPa South 12.9 km/h 33.6 km/h 92 % 0 mm 0 W/m2
03:20 -9.9 °C -10.7 °C 33731.3 hPa SSW 20.8 km/h 33.6 km/h 92 % 0 mm 0 W/m2
03:25 -9.9 °C -10.7 °C 33731.3 hPa SSE 23.3 km/h 36.2 km/h 92 % 0 mm 0 W/m2
03:30 -9.9 °C -10.7 °C 33731.3 hPa SSW 15.6 km/h 36.2 km/h 92 % 0 mm 0 W/m2
03:40 -9.9 °C -10.7 °C 33731.3 hPa South 15.6 km/h 31.1 km/h 92 % 0 mm 0 W/m2
03:45 -9.9 °C -10.6 °C 33731.3 hPa SSW 15.6 km/h 28.5 km/h 92 % 0 mm 0 W/m2
03:50 -9.9 °C -10.6 °C 33731.3 hPa South 23.3 km/h 28.5 km/h 92 % 0 mm 0 W/m2
03:55 -9.9 °C -10.7 °C 33731.3 hPa SSW 18.2 km/h 31.1 km/h 91 % 0 mm 0 W/m2
04:00 -9.9 °C -10.7 °C 33731.3 hPa South 18.2 km/h 36.2 km/h 91 % 0 mm 0 W/m2
04:05 -9.9 °C -10.7 °C 33731.3 hPa South 18.2 km/h 36.2 km/h 91 % 0 mm 0 W/m2
04:10 -9.9 °C -10.7 °C 33731.3 hPa SSE 10.3 km/h 38.8 km/h 91 % 0 mm 0 W/m2
04:15 -9.9 °C -10.7 °C 33731.3 hPa SW 20.8 km/h 46.7 km/h 91 % 0 mm 0 W/m2
04:20 -9.9 °C -10.7 °C 33731.3 hPa South 18.2 km/h 46.7 km/h 91 % 0 mm 0 W/m2
04:25 -9.9 °C -10.7 °C 33731.3 hPa SSW 18.2 km/h 33.6 km/h 91 % 0 mm 0 W/m2
04:30 -9.9 °C -10.7 °C 33731.3 hPa SSW 36.2 km/h 36.2 km/h 91 % 0 mm 0 W/m2
04:35 -9.9 °C -10.7 °C 33731.3 hPa SSE 15.6 km/h 38.8 km/h 91 % 0 mm 0 W/m2
04:40 -9.9 °C -10.7 °C 33731.3 hPa South 10.3 km/h 38.8 km/h 91 % 0 mm 0 W/m2
04:45 -9.9 °C -10.7 °C 33731.3 hPa South 15.6 km/h 38.8 km/h 91 % 0 mm 0 W/m2
04:50 -9.9 °C -10.8 °C 33731.3 hPa SSW 7.7 km/h 38.8 km/h 90 % 0 mm 0 W/m2
04:55 -9.8 °C -10.7 °C 33741.5 hPa SSW 23.3 km/h 38.8 km/h 90 % 0 mm 0 W/m2
05:00 -9.8 °C -10.7 °C 33741.5 hPa South 7.7 km/h 38.8 km/h 90 % 0 mm 0 W/m2
05:05 -9.8 °C -10.7 °C 33741.5 hPa SW 12.9 km/h 36.2 km/h 90 % 0 mm 0 W/m2
05:10 -9.8 °C -10.7 °C 33741.5 hPa SSW 18.2 km/h 36.2 km/h 90 % 0 mm 0 W/m2
05:15 -9.8 °C -10.7 °C 33741.5 hPa WSW 10.3 km/h 33.6 km/h 90 % 0 mm 0 W/m2
05:20 -9.8 °C -10.7 °C 33741.5 hPa South 20.8 km/h 33.6 km/h 90 % 0 mm 0 W/m2
05:25 -9.8 °C -10.7 °C 33741.5 hPa SSW 18.2 km/h 33.6 km/h 90 % 0 mm 0 W/m2
05:30 -9.8 °C -10.7 °C 33741.5 hPa South 15.6 km/h 36.2 km/h 90 % 0 mm 0 W/m2
05:35 -9.8 °C -10.7 °C 33741.5 hPa SW 10.3 km/h 36.2 km/h 90 % 0 mm 0 W/m2
05:40 -9.8 °C -10.7 °C 33741.5 hPa SSW 10.3 km/h 28.5 km/h 90 % 0 mm 0 W/m2
05:45 -9.9 °C -10.8 °C 33741.5 hPa SW 15.6 km/h 28.5 km/h 90 % 0 mm 0 W/m2
05:50 -9.9 °C -10.8 °C 33741.5 hPa SSW 15.6 km/h 33.6 km/h 90 % 0 mm 0 W/m2
05:55 -9.8 °C -10.7 °C 33741.5 hPa SSW 18.2 km/h 33.6 km/h 90 % 0 mm 0 W/m2
06:00 -9.9 °C -10.8 °C 33741.5 hPa SSW 12.9 km/h 28.5 km/h 90 % 0 mm 0 W/m2
06:05 -9.9 °C -10.8 °C 33751.6 hPa SSW 12.9 km/h 28.5 km/h 90 % 0 mm 0 W/m2
06:10 -9.9 °C -10.7 °C 33751.6 hPa SSW 2.6 km/h 28.5 km/h 91 % 0 mm 0 W/m2
06:15 -9.9 °C -10.7 °C 33741.5 hPa SSW 12.9 km/h 31.1 km/h 91 % 0 mm 0 W/m2
06:20 -9.9 °C -10.7 °C 33751.6 hPa SW 2.6 km/h 31.1 km/h 91 % 0 mm 0 W/m2
06:25 -9.9 °C -10.8 °C 33751.6 hPa West 5.1 km/h 33.6 km/h 91 % 0 mm 0 W/m2
06:30 -9.9 °C -10.8 °C 33751.6 hPa WSW 12.9 km/h 33.6 km/h 91 % 0 mm 0 W/m2
06:35 -9.9 °C -10.7 °C 33751.6 hPa SSW 10.3 km/h 28.5 km/h 92 % 0 mm 0 W/m2
06:40 -9.9 °C -10.7 °C 33751.6 hPa SW 12.9 km/h 28.5 km/h 92 % 0 mm 0 W/m2
06:45 -9.9 °C -10.7 °C 33751.6 hPa South 23.3 km/h 31.1 km/h 91 % 0 mm 0 W/m2
06:50 -9.9 °C -10.6 °C 33751.6 hPa SW 5.1 km/h 31.1 km/h 92 % 0 mm 0 W/m2
06:55 -9.9 °C -10.6 °C 33751.6 hPa SW 5.1 km/h 25.9 km/h 92 % 0 mm 5 W/m2
07:00 -9.9 °C -10.6 °C 33751.6 hPa SSW 10.3 km/h 25.9 km/h 92 % 0 mm 5 W/m2
07:05 -9.9 °C -10.6 °C 33751.6 hPa South 15.6 km/h 25.9 km/h 92 % 0 mm 5 W/m2
07:10 -9.9 °C -10.6 °C 33765.2 hPa WSW 2.6 km/h 31.1 km/h 92 % 0 mm 11 W/m2
07:15 -9.9 °C -10.6 °C 33765.2 hPa SSW 7.7 km/h 31.1 km/h 92 % 0 mm 11 W/m2
07:20 -9.9 °C -10.6 °C 33765.2 hPa SSW 18.2 km/h 25.9 km/h 92 % 0 mm 12 W/m2
07:25 -9.9 °C -10.6 °C 33765.2 hPa South 12.9 km/h 25.9 km/h 92 % 0 mm 12 W/m2
07:30 -9.9 °C -10.6 °C 33765.2 hPa SW 15.6 km/h 31.1 km/h 92 % 0 mm 16 W/m2
07:35 -9.8 °C -10.6 °C 33765.2 hPa South 15.6 km/h 31.1 km/h 92 % 0 mm 16 W/m2
07:40 -9.8 °C -10.7 °C 33775.4 hPa South 20.8 km/h 23.3 km/h 91 % 0 mm 21 W/m2
07:45 -9.8 °C -10.6 °C 33775.4 hPa South 15.6 km/h 23.3 km/h 92 % 0 mm 26 W/m2
07:50 -9.8 °C -10.5 °C 33775.4 hPa SSW 5.1 km/h 25.9 km/h 92 % 0 mm 40 W/m2
07:55 -9.8 °C -10.5 °C 33775.4 hPa SSE 12.9 km/h 25.9 km/h 92 % 0 mm 51 W/m2
08:00 -9.8 °C -10.5 °C 33775.4 hPa South 15.6 km/h 28.5 km/h 92 % 0 mm 69 W/m2
08:05 -9.8 °C -10.4 °C 33775.4 hPa South 15.6 km/h 28.5 km/h 92 % 0 mm 56 W/m2
08:10 -9.7 °C -10.4 °C 33788.9 hPa SSE 15.6 km/h 25.9 km/h 92 % 0 mm 53 W/m2
08:15 -9.7 °C -10.4 °C 33788.9 hPa SSW 15.6 km/h 25.9 km/h 92 % 0 mm 53 W/m2
08:20 -9.7 °C -10.4 °C 33788.9 hPa SSW 10.3 km/h 25.9 km/h 92 % 0 mm 54 W/m2
08:25 -9.7 °C -10.4 °C 33788.9 hPa SSW 25.9 km/h 31.1 km/h 92 % 0 mm 49 W/m2
08:30 -9.7 °C -10.4 °C 33788.9 hPa SSW 15.6 km/h 31.1 km/h 92 % 0 mm 76 W/m2
08:35 -9.7 °C -10.4 °C 33788.9 hPa South 7.7 km/h 31.1 km/h 92 % 0 mm 93 W/m2
08:40 -9.6 °C -10.3 °C 33788.9 hPa WSW 7.7 km/h 31.1 km/h 92 % 0 mm 63 W/m2
08:45 -9.6 °C -10.4 °C 33788.9 hPa SW 18.2 km/h 31.1 km/h 91 % 0 mm 76 W/m2
08:50 -9.6 °C -10.4 °C 33788.9 hPa SSW 15.6 km/h 31.1 km/h 91 % 0 mm 102 W/m2
08:55 -9.6 °C -10.4 °C 33788.9 hPa SW 10.3 km/h 31.1 km/h 91 % 0 mm 81 W/m2
09:00 -9.6 °C -10.4 °C 33788.9 hPa SW 18.2 km/h 33.6 km/h 91 % 0 mm 79 W/m2
09:05 -9.6 °C -10.4 °C 33799.1 hPa SW 5.1 km/h 33.6 km/h 91 % 0 mm 105 W/m2
09:10 -9.6 °C -10.3 °C 33799.1 hPa SW 5.1 km/h 31.1 km/h 91 % 0 mm 104 W/m2
09:15 -9.6 °C -10.4 °C 33799.1 hPa SSW 18.2 km/h 28.5 km/h 90 % 0 mm 100 W/m2
09:20 -9.5 °C -10.4 °C 33799.1 hPa Calm   31.1 km/h 90 % 0 mm 102 W/m2
09:25 -9.5 °C -10.4 °C 33799.1 hPa SSW 23.3 km/h 31.1 km/h 90 % 0 mm 91 W/m2
09:30 -9.5 °C -10.4 °C 33799.1 hPa WSW 15.6 km/h 33.6 km/h 90 % 0 mm 134 W/m2
09:35 -9.5 °C -10.4 °C 33799.1 hPa SW 5.1 km/h 33.6 km/h 90 % 0 mm 107 W/m2
09:40 -9.4 °C -10.3 °C 33809.2 hPa SSW 18.2 km/h 38.8 km/h 90 % 0 mm 127 W/m2
09:45 -9.4 °C -10.4 °C 33809.2 hPa SSW 12.9 km/h 38.8 km/h 89 % 0 mm 93 W/m2
09:50 -9.4 °C -10.4 °C 33809.2 hPa SSW 18.2 km/h 33.6 km/h 89 % 0 mm 88 W/m2
09:55 -9.4 °C -10.4 °C 33809.2 hPa SSW 12.9 km/h 36.2 km/h 89 % 0 mm 128 W/m2
10:00 -9.4 °C -10.4 °C 33809.2 hPa WSW 12.9 km/h 36.2 km/h 89 % 0 mm 144 W/m2
10:05 -9.3 °C -10.3 °C 33809.2 hPa SW 23.3 km/h 33.6 km/h 89 % 0 mm 167 W/m2
10:10 -9.3 °C -10.3 °C 33809.2 hPa SSW 15.6 km/h 36.2 km/h 89 % 0 mm 260 W/m2
10:15 -9.2 °C -10.2 °C 33809.2 hPa South 31.1 km/h 36.2 km/h 89 % 0 mm 220 W/m2
10:20 -9.1 °C -10.2 °C 33822.8 hPa SSW 10.3 km/h 31.1 km/h 88 % 0 mm 165 W/m2
10:25 -9.2 °C -10.3 °C 33822.8 hPa South 10.3 km/h 31.1 km/h 88 % 0 mm 169 W/m2
10:30 -9.2 °C -10.3 °C 33822.8 hPa SW 20.8 km/h 33.6 km/h 88 % 0 mm 207 W/m2
10:35 -9.2 °C -10.3 °C 33822.8 hPa WSW 12.9 km/h 33.6 km/h 88 % 0 mm 232 W/m2
10:45 -9.2 °C -10.3 °C 33822.8 hPa WSW 10.3 km/h 25.9 km/h 88 % 0 mm 251 W/m2
10:50 -9.1 °C -10.2 °C 33822.8 hPa WSW 12.9 km/h 41.4 km/h 88 % 0 mm 378 W/m2
10:55 -8.9 °C -10 °C 33832.9 hPa SW 5.1 km/h 41.4 km/h 88 % 0 mm 359 W/m2
11:00 -8.8 °C -10 °C 33832.9 hPa SSW 10.3 km/h 36.2 km/h 87 % 0 mm 290 W/m2
11:05 -8.8 °C -10.2 °C 33832.9 hPa WSW 18.2 km/h 31.1 km/h 86 % 0 mm 360 W/m2
11:10 -8.8 °C -10.2 °C 33832.9 hPa WSW 10.3 km/h 33.6 km/h 86 % 0 mm 260 W/m2
11:15 -8.9 °C -10.2 °C 33832.9 hPa West 10.3 km/h 33.6 km/h 86 % 0 mm 357 W/m2
11:20 -8.8 °C -10.1 °C 33832.9 hPa SW 18.2 km/h 31.1 km/h 87 % 0 mm 346 W/m2
11:25 -8.9 °C -10.1 °C 33843.1 hPa South 5.1 km/h 31.1 km/h 87 % 0 mm 568 W/m2
11:30 -8.7 °C -9.9 °C 33843.1 hPa WNW 10.3 km/h 31.1 km/h 87 % 0 mm 376 W/m2
11:35 -8.8 °C -10.1 °C 33843.1 hPa WSW 12.9 km/h 36.2 km/h 86 % 0 mm 343 W/m2
11:40 -8.7 °C -9.9 °C 33843.1 hPa SSW 10.3 km/h 36.2 km/h 87 % 0 mm 445 W/m2
11:45 -8.8 °C -10.1 °C 33843.1 hPa West 12.9 km/h 28.5 km/h 86 % 0 mm 524 W/m2
11:50 -8.7 °C -9.9 °C 33843.1 hPa SSW 5.1 km/h 33.6 km/h 87 % 0 mm 469 W/m2
11:55 -8.6 °C -9.9 °C 33856.6 hPa West 10.3 km/h 33.6 km/h 86 % 0 mm 355 W/m2
12:00 -8.7 °C -10.1 °C 33856.6 hPa WSW 2.6 km/h 33.6 km/h 85 % 0 mm 364 W/m2
12:05 -8.8 °C -10.1 °C 33856.6 hPa SSW 25.9 km/h 41.4 km/h 86 % 0 mm 420 W/m2
12:10 -8.6 °C -9.8 °C 33856.6 hPa WSW 36.2 km/h 44.1 km/h 86 % 0 mm 501 W/m2
12:15 -8.3 °C -9.7 °C 33856.6 hPa SW 5.1 km/h 44.1 km/h 85 % 0 mm 749 W/m2
12:20 -8.5 °C -10 °C 33856.6 hPa WSW 7.7 km/h 44.1 km/h 84 % 0 mm 476 W/m2
12:25 -8.5 °C -9.9 °C 33856.6 hPa SW 28.5 km/h 44.1 km/h 85 % 0 mm 538 W/m2
12:30 -8.4 °C -9.8 °C 33856.6 hPa South 12.9 km/h 38.8 km/h 85 % 0 mm 561 W/m2
12:35 -8.3 °C -9.8 °C 33856.6 hPa WNW 20.8 km/h 38.8 km/h 84 % 0 mm 686 W/m2
12:40 -8.2 °C -9.6 °C 33866.8 hPa WSW 23.3 km/h 33.6 km/h 85 % 0 mm 496 W/m2
12:45 -8.2 °C -9.8 °C 33866.8 hPa West 18.2 km/h 38.8 km/h 83 % 0 mm 610 W/m2
12:50 -8.3 °C -9.9 °C 33866.8 hPa South 12.9 km/h 38.8 km/h 83 % 0 mm 519 W/m2
12:55 -8.5 °C -10 °C 33866.8 hPa WSW 18.2 km/h 33.6 km/h 84 % 0 mm 580 W/m2
13:00 -8.4 °C -9.9 °C 33866.8 hPa South 12.9 km/h 44.1 km/h 84 % 0 mm 434 W/m2
13:05 -8.3 °C -9.8 °C 33880.3 hPa West 18.2 km/h 44.1 km/h 84 % 0 mm 536 W/m2
13:10 -8.6 °C -10.1 °C 33880.3 hPa SW 25.9 km/h 46.7 km/h 84 % 0 mm 403 W/m2
13:15 -8.7 °C -10.1 °C 33880.3 hPa SW 10.3 km/h 46.7 km/h 85 % 0 mm 362 W/m2
13:20 -8.7 °C -9.9 °C 33880.3 hPa SSW 12.9 km/h 33.6 km/h 87 % 0 mm 380 W/m2
13:25 -8.7 °C -9.9 °C 33880.3 hPa SW 7.7 km/h 28.5 km/h 86 % 0 mm 476 W/m2
13:30 -8.5 °C -9.8 °C 33880.3 hPa WSW 12.9 km/h 33.6 km/h 86 % 0 mm 394 W/m2
13:35 -8.6 °C -9.9 °C 33880.3 hPa SW 10.3 km/h 33.6 km/h 86 % 0 mm 504 W/m2
13:40 -8.5 °C -9.9 °C 33890.5 hPa WSW 7.7 km/h 31.1 km/h 85 % 0 mm 441 W/m2
13:45 -8.4 °C -9.7 °C 33890.5 hPa SW 15.6 km/h 31.1 km/h 86 % 0 mm 673 W/m2
13:50 -8.2 °C -9.7 °C 33890.5 hPa SW 18.2 km/h 38.8 km/h 84 % 0 mm 752 W/m2
13:55 -8.1 °C -9.7 °C 33890.5 hPa SW 18.2 km/h 38.8 km/h 83 % 0 mm 503 W/m2
14:00 -8.3 °C -9.9 °C 33890.5 hPa WSW 10.3 km/h 38.8 km/h 83 % 0 mm 476 W/m2
14:05 -8.4 °C -9.9 °C 33890.5 hPa SSW 15.6 km/h 44.1 km/h 84 % 0 mm 438 W/m2
14:10 -8.6 °C -10.1 °C 33890.5 hPa WSW 10.3 km/h 44.1 km/h 84 % 0 mm 364 W/m2
14:15 -8.7 °C -10 °C 33890.5 hPa WSW 12.9 km/h 38.8 km/h 86 % 0 mm 431 W/m2
14:20 -8.7 °C -9.8 °C 33900.6 hPa SSW 25.9 km/h 38.8 km/h 88 % 0 mm 348 W/m2
14:25 -8.8 °C -9.9 °C 33900.6 hPa SW 25.9 km/h 41.4 km/h 88 % 0 mm 260 W/m2
14:30 -9 °C -9.9 °C 33900.6 hPa SSW 15.6 km/h 41.4 km/h 90 % 0 mm 243 W/m2
14:35 -9.1 °C -9.9 °C 33890.5 hPa WSW 10.3 km/h 36.2 km/h 91 % 0 mm 269 W/m2
14:40 -9.1 °C -9.8 °C 33900.6 hPa SW 18.2 km/h 36.2 km/h 91 % 0 mm 272 W/m2
14:45 -9.1 °C -9.9 °C 33900.6 hPa SSW 12.9 km/h 33.6 km/h 91 % 0 mm 262 W/m2
14:50 -9.2 °C -10.1 °C 33900.6 hPa WSW 25.9 km/h 41.4 km/h 90 % 0 mm 134 W/m2
14:55 -9.3 °C -10.2 °C 33900.6 hPa West 31.1 km/h 41.4 km/h 90 % 0 mm 336 W/m2
15:00 -9 °C -9.9 °C 33900.6 hPa SSW 18.2 km/h 36.2 km/h 90 % 0 mm 436 W/m2
15:10 -8.9 °C -10 °C 33900.6 hPa South 20.8 km/h 46.7 km/h 88 % 0 mm 452 W/m2
15:15 -8.8 °C -10.1 °C 33900.6 hPa WSW 25.9 km/h 41.4 km/h 87 % 0 mm 531 W/m2
15:20 -8.7 °C -10 °C 33900.6 hPa SSW 18.2 km/h 41.4 km/h 86 % 0 mm 671 W/m2
15:25 -8.5 °C -9.8 °C 33900.6 hPa WSW 23.3 km/h 41.4 km/h 86 % 0 mm 823 W/m2
15:30 -8.5 °C -9.9 °C 33900.6 hPa WSW 7.7 km/h 49.2 km/h 85 % 0 mm 960 W/m2
15:35 -8.4 °C -9.7 °C 33900.6 hPa West 12.9 km/h 49.2 km/h 86 % 0 mm 956 W/m2
15:40 -8.4 °C -9.9 °C 33900.6 hPa WSW 7.7 km/h 44.1 km/h 84 % 0 mm 429 W/m2
15:45 -8.8 °C -10.3 °C 33914.2 hPa SW 10.3 km/h 46.7 km/h 84 % 0 mm 244 W/m2
15:50 -9.1 °C -10.3 °C 33914.2 hPa WSW 7.7 km/h 46.7 km/h 87 % 0 mm 294 W/m2
15:55 -9.1 °C -10.3 °C 33914.2 hPa SW 15.6 km/h 38.8 km/h 87 % 0 mm 225 W/m2
16:00 -9.2 °C -10.4 °C 33914.2 hPa SW 15.6 km/h 41.4 km/h 87 % 0 mm 195 W/m2
16:05 -9.3 °C -10.4 °C 33914.2 hPa SSW 5.1 km/h 41.4 km/h 88 % 0 mm 188 W/m2
16:10 -9.4 °C -10.4 °C 33914.2 hPa SSW 5.1 km/h 33.6 km/h 89 % 0 mm 162 W/m2
16:15 -9.3 °C -10.3 °C 33914.2 hPa West 15.6 km/h 33.6 km/h 90 % 0 mm 290 W/m2
16:20 -9.3 °C -10.3 °C 33914.2 hPa SW 12.9 km/h 33.6 km/h 90 % 0 mm 301 W/m2
16:25 -9.3 °C -10.3 °C 33914.2 hPa South 20.8 km/h 31.1 km/h 89 % 0 mm 269 W/m2
16:30 -9.3 °C -10.3 °C 33914.2 hPa WSW 5.1 km/h 31.1 km/h 89 % 0 mm 301 W/m2
16:35 -9.2 °C -10.2 °C 33914.2 hPa SSW 12.9 km/h 28.5 km/h 89 % 0 mm 446 W/m2
16:40 -8.8 °C -9.9 °C 33914.2 hPa WSW 23.3 km/h 38.8 km/h 89 % 0 mm 865 W/m2
16:45 -8.8 °C -9.9 °C 33914.2 hPa West 20.8 km/h 38.8 km/h 87 % 0 mm 501 W/m2
16:50 -8.9 °C -10.3 °C 33914.2 hPa SSW 33.6 km/h 41.4 km/h 85 % 0 mm 373 W/m2
16:55 -8.9 °C -10.2 °C 33914.2 hPa WSW 12.9 km/h 41.4 km/h 87 % 0 mm 403 W/m2
17:00 -9 °C -10.2 °C 33914.2 hPa SW 20.8 km/h 38.8 km/h 87 % 0 mm 341 W/m2
17:05 -9 °C -10.2 °C 33914.2 hPa West 23.3 km/h 38.8 km/h 87 % 0 mm 338 W/m2
17:10 -9.1 °C -10.3 °C 33914.2 hPa WSW 18.2 km/h 38.8 km/h 87 % 0 mm 339 W/m2
17:15 -9 °C -10.2 °C 33924.3 hPa WSW 18.2 km/h 38.8 km/h 87 % 0 mm 360 W/m2
17:20 -9 °C -10.2 °C 33924.3 hPa West 33.6 km/h 36.2 km/h 87 % 0 mm 322 W/m2
17:25 -8.9 °C -10.1 °C 33924.3 hPa WSW 18.2 km/h 41.4 km/h 87 % 0 mm 353 W/m2
17:30 -9 °C -10.3 °C 33924.3 hPa WSW 15.6 km/h 41.4 km/h 86 % 0 mm 283 W/m2
17:35 -9 °C -10.2 °C 33924.3 hPa WSW 18.2 km/h 36.2 km/h 87 % 0 mm 357 W/m2
17:40 -8.9 °C -10.1 °C 33924.3 hPa West 18.2 km/h 31.1 km/h 87 % 0 mm 352 W/m2
17:45 -8.8 °C -10 °C 33924.3 hPa SSW 2.6 km/h 31.1 km/h 87 % 0 mm 327 W/m2
17:50 -8.8 °C -9.9 °C 33924.3 hPa SSW 12.9 km/h 31.1 km/h 87 % 0 mm 309 W/m2
17:55 -8.8 °C -10.2 °C 33924.3 hPa SW 12.9 km/h 38.8 km/h 86 % 0 mm 301 W/m2
18:00 -8.9 °C -10.1 °C 33924.3 hPa WSW 20.8 km/h 38.8 km/h 87 % 0 mm 311 W/m2
18:05 -8.8 °C -10 °C 33924.3 hPa SSW 2.6 km/h 31.1 km/h 87 % 0 mm 357 W/m2
18:10 -8.8 °C -10.1 °C 33937.9 hPa WSW 7.7 km/h 33.6 km/h 86 % 0 mm 529 W/m2
18:15 -8.7 °C -10 °C 33937.9 hPa West 10.3 km/h 36.2 km/h 86 % 0 mm 239 W/m2
18:25 -8.9 °C -10.1 °C 33937.9 hPa South 10.3 km/h 25.9 km/h 87 % 0 mm 359 W/m2
18:30 -8.8 °C -10.1 °C 33937.9 hPa WSW 18.2 km/h 31.1 km/h 86 % 0 mm 401 W/m2
18:35 -8.7 °C -10 °C 33937.9 hPa WSW 15.6 km/h 38.8 km/h 86 % 0 mm 378 W/m2
18:40 -8.8 °C -10.2 °C 33937.9 hPa SSW 10.3 km/h 38.8 km/h 86 % 0 mm 174 W/m2
18:45 -9.1 °C -10.3 °C 33937.9 hPa South 7.7 km/h 33.6 km/h 87 % 0 mm 207 W/m2
18:55 -9.3 °C -10.4 °C 33948 hPa SSW 2.6 km/h 31.1 km/h 88 % 0 mm 134 W/m2
19:00 -9.3 °C -10.3 °C 33948 hPa SSW 15.6 km/h 28.5 km/h 89 % 0 mm 178 W/m2
19:05 -9.3 °C -10.3 °C 33948 hPa SW 18.2 km/h 31.1 km/h 89 % 0 mm 185 W/m2
19:10 -9.3 °C -10.3 °C 33948 hPa West 12.9 km/h 31.1 km/h 89 % 0 mm 158 W/m2
19:15 -9.3 °C -10.3 °C 33948 hPa WSW 28.5 km/h 28.5 km/h 89 % 0 mm 149 W/m2
19:20 -9.3 °C -10.3 °C 33948 hPa WSW 12.9 km/h 28.5 km/h 89 % 0 mm 125 W/m2
19:25 -9.3 °C -10.3 °C 33948 hPa WSW 7.7 km/h 28.5 km/h 89 % 0 mm 113 W/m2
19:30 -9.3 °C -10.3 °C 33948 hPa SSW 10.3 km/h 28.5 km/h 89 % 0 mm 111 W/m2
19:35 -9.4 °C -10.4 °C 33948 hPa SSW 5.1 km/h 20.8 km/h 89 % 0 mm 105 W/m2
19:40 -9.4 °C -10.4 °C 33958.2 hPa WSW 15.6 km/h 28.5 km/h 89 % 0 mm 91 W/m2
19:45 -9.5 °C -10.4 °C 33958.2 hPa SSW 15.6 km/h 28.5 km/h 90 % 0 mm 86 W/m2
19:50 -9.5 °C -10.4 °C 33958.2 hPa West 5.1 km/h 20.8 km/h 90 % 0 mm 77 W/m2
19:55 -9.5 °C -10.4 °C 33958.2 hPa West 12.9 km/h 20.8 km/h 90 % 0 mm 74 W/m2
20:00 -9.6 °C -10.4 °C 33958.2 hPa WSW 10.3 km/h 25.9 km/h 90 % 0 mm 79 W/m2
20:05 -9.6 °C -10.4 °C 33958.2 hPa WSW 2.6 km/h 25.9 km/h 90 % 0 mm 72 W/m2
20:10 -9.6 °C -10.3 °C 33971.7 hPa SW 15.6 km/h 25.9 km/h 91 % 0 mm 65 W/m2
20:15 -9.6 °C -10.3 °C 33971.7 hPa SW 5.1 km/h 25.9 km/h 91 % 0 mm 53 W/m2
20:20 -9.6 °C -10.4 °C 33971.7 hPa SW 20.8 km/h 25.9 km/h 91 % 0 mm 46 W/m2
20:25 -9.6 °C -10.4 °C 33981.9 hPa SW 7.7 km/h 25.9 km/h 91 % 0 mm 40 W/m2
20:30 -9.6 °C -10.4 °C 33981.9 hPa SW 15.6 km/h 31.1 km/h 91 % 0 mm 39 W/m2
20:35 -9.6 °C -10.4 °C 33981.9 hPa WSW 7.7 km/h 31.1 km/h 91 % 0 mm 46 W/m2
20:40 -9.6 °C -10.4 °C 33981.9 hPa SSW 12.9 km/h 28.5 km/h 91 % 0 mm 49 W/m2
20:45 -9.6 °C -10.4 °C 33981.9 hPa West 5.1 km/h 25.9 km/h 91 % 0 mm 40 W/m2
20:50 -9.6 °C -10.4 °C 33981.9 hPa SW 5.1 km/h 31.1 km/h 91 % 0 mm 35 W/m2
20:55 -9.7 °C -10.5 °C 33981.9 hPa SW 12.9 km/h 31.1 km/h 91 % 0 mm 23 W/m2
21:00 -9.7 °C -10.6 °C 33992.1 hPa West 15.6 km/h 31.1 km/h 91 % 0 mm 12 W/m2
21:05 -9.8 °C -10.6 °C 33992.1 hPa SW 10.3 km/h 31.1 km/h 91 % 0 mm 12 W/m2
21:10 -9.8 °C -10.6 °C 33992.1 hPa WSW 10.3 km/h 25.9 km/h 92 % 0 mm 11 W/m2
21:15 -9.9 °C -10.6 °C 33992.1 hPa SW 12.9 km/h 25.9 km/h 92 % 0 mm 11 W/m2
21:20 -9.9 °C -10.7 °C 33992.1 hPa West 25.9 km/h 25.9 km/h 92 % 0 mm 9 W/m2
21:25 -10 °C -10.6 °C 33992.1 hPa WSW 7.7 km/h 25.9 km/h 93 % 0 mm 5 W/m2
21:30 -10 °C -10.6 °C 34005.6 hPa SSW 12.9 km/h 23.3 km/h 93 % 0 mm 0 W/m2
21:35 -10.1 °C -10.7 °C 34005.6 hPa WSW 15.6 km/h 23.3 km/h 93 % 0 mm 0 W/m2
21:40 -10.1 °C -10.7 °C 34005.6 hPa SSW 12.9 km/h 20.8 km/h 93 % 0 mm 0 W/m2
21:45 -10.1 °C -10.7 °C 34015.8 hPa SW 12.9 km/h 25.9 km/h 93 % 0 mm 0 W/m2
21:50 -10.2 °C -10.8 °C 34015.8 hPa SW 10.3 km/h 25.9 km/h 93 % 0 mm 0 W/m2
21:55 -10.2 °C -10.8 °C 34015.8 hPa SW 7.7 km/h 25.9 km/h 93 % 0 mm 0 W/m2
22:00 -10.2 °C -10.8 °C 34015.8 hPa SSW 12.9 km/h 25.9 km/h 93 % 0 mm 0 W/m2
22:05 -10.2 °C -10.8 °C 34015.8 hPa SSW 7.7 km/h 25.9 km/h 93 % 0 mm 0 W/m2
22:10 -10.2 °C -10.8 °C 34029.3 hPa WSW 12.9 km/h 25.9 km/h 93 % 0 mm 0 W/m2
22:15 -10.2 °C -10.8 °C 34029.3 hPa SW 7.7 km/h 23.3 km/h 93 % 0 mm 0 W/m2
22:20 -10.1 °C -10.7 °C 34029.3 hPa West 5.1 km/h 36.2 km/h 93 % 0 mm 0 W/m2
22:25 -10.2 °C -10.8 °C 34029.3 hPa SW 5.1 km/h 36.2 km/h 93 % 0 mm 0 W/m2
22:30 -10.2 °C -10.8 °C 34039.5 hPa SW 5.1 km/h 23.3 km/h 93 % 0 mm 0 W/m2
22:35 -10.2 °C -10.8 °C 34039.5 hPa WSW 2.6 km/h 23.3 km/h 93 % 0 mm 0 W/m2
22:40 -10.1 °C -10.7 °C 34039.5 hPa SW 7.7 km/h 20.8 km/h 93 % 0 mm 0 W/m2
22:50 -10.1 °C -10.7 °C 34039.5 hPa SW 10.3 km/h 10.3 km/h 93 % 0 mm 0 W/m2
23:00 -9.9 °C -10.6 °C 34049.6 hPa SW 10.3 km/h 20.8 km/h 93 % 0 mm 0 W/m2
23:05 -9.9 °C -10.7 °C 34049.6 hPa Calm   20.8 km/h 92 % 0 mm 0 W/m2
23:10 -9.9 °C -10.7 °C 34049.6 hPa WSW 5.1 km/h 20.8 km/h 92 % 0 mm 0 W/m2
23:15 -9.9 °C -10.7 °C 34049.6 hPa West 18.2 km/h 20.8 km/h 92 % 0 mm 0 W/m2
23:20 -9.9 °C -10.7 °C 34049.6 hPa WSW 7.7 km/h 20.8 km/h 92 % 0 mm 0 W/m2
23:25 -9.9 °C -10.7 °C 34049.6 hPa WSW 2.6 km/h 15.6 km/h 92 % 0 mm 0 W/m2
23:30 -9.9 °C -10.7 °C 34049.6 hPa SW 5.1 km/h 18.2 km/h 92 % 0 mm 0 W/m2
23:35 -9.9 °C -10.7 °C 34063.2 hPa West 2.6 km/h 23.3 km/h 92 % 0 mm 0 W/m2
23:40 -9.9 °C -10.7 °C 34063.2 hPa SW 18.2 km/h 23.3 km/h 92 % 0 mm 0 W/m2
23:45 -9.9 °C -10.7 °C 34063.2 hPa SW 12.9 km/h 23.3 km/h 92 % 0 mm 0 W/m2
23:50 -9.9 °C -10.7 °C 34063.2 hPa SSW 2.6 km/h 23.3 km/h 92 % 0 mm 0 W/m2
23:55 -9.9 °C -10.7 °C 34063.2 hPa SW 18.2 km/h 23.3 km/h 92 % 0 mm 0 W/m2
Avec l'autorisation de Weather Underground - 1.75 mb